| time (UTC) | temp F | wind direction | speed MPH | gust MPH | rain 1hr in | rain 24hr in | rain mn in | humidity % | barometer mb |
| 20260507063038 | 27 | 65 | 0.0 | 2.0 | 0.00 | 0.30 | 0.00 | 64 | 1022.5 |
| 20260507061535 | 28 | 70 | 0.0 | 2.0 | 0.00 | 0.30 | 0.00 | 61 | 1022.4 |
| 20260507060032 | 29 | 44 | 0.0 | 3.0 | 0.00 | 0.30 | 0.00 | 60 | 1022.4 |
| 20260507054529 | 28 | 98 | 0.0 | 3.0 | 0.00 | 0.30 | 0.30 | 62 | 1022.2 |
| 20260507053027 | 28 | 77 | 0.0 | 0.0 | 0.00 | 0.30 | 0.30 | 61 | 1021.9 |
| 20260507051525 | 27 | 65 | 0.0 | 0.0 | 0.00 | 0.30 | 0.30 | 65 | 1021.7 |
| 20260507050031 | 27 | 245 | 0.0 | 0.0 | 0.00 | 0.30 | 0.30 | 64 | 1021.4 |
| 20260507044538 | 27 | 94 | 0.0 | 0.0 | 0.00 | 0.30 | 0.30 | 64 | 1021.1 |
| 20260507043019 | 27 | 243 | 0.0 | 0.0 | 0.00 | 0.30 | 0.30 | 66 | 1021.0 |
| 20260507041517 | 27 | 243 | 0.0 | 0.0 | 0.00 | 0.30 | 0.30 | 67 | 1020.9 |
| 20260507040017 | 28 | 243 | 0.0 | 0.0 | 0.00 | 0.30 | 0.30 | 63 | 1020.5 |
| 20260507034512 | 28 | 243 | 0.0 | 0.0 | 0.00 | 0.30 | 0.30 | 64 | 1020.0 |
| 20260507033010 | 29 | 94 | 0.0 | 0.0 | 0.00 | 0.30 | 0.30 | 63 | 1019.9 |
| 20260507031506 | 30 | 94 | 0.0 | 1.0 | 0.00 | 0.30 | 0.30 | 62 | 1019.6 |
| 20260507030005 | 31 | 78 | 0.0 | 1.0 | 0.00 | 0.30 | 0.30 | 60 | 1019.2 |
| 20260507024501 | 33 | 101 | 0.0 | 1.0 | 0.00 | 0.30 | 0.30 | 52 | 1018.8 |
| 20260507023059 | 33 | 56 | 0.0 | 2.0 | 0.00 | 0.30 | 0.30 | 48 | 1018.5 |
| 20260507021616 | 33 | 75 | 0.0 | 4.0 | 0.00 | 0.30 | 0.30 | 52 | 1018.0 |
| 20260507020104 | 34 | 61 | 0.0 | 3.0 | 0.00 | 0.30 | 0.30 | 50 | 1017.6 |
| 20260507014611 | 34 | 18 | 0.0 | 4.0 | 0.00 | 0.30 | 0.30 | 51 | 1017.3 |
| 20260507013054 | 35 | 154 | 0.0 | 6.0 | 0.00 | 0.30 | 0.30 | 53 | 1017.0 |
| 20260507011547 | 36 | 231 | 1.0 | 5.0 | 0.00 | 0.30 | 0.30 | 53 | 1016.6 |
| 20260507010054 | 38 | 167 | 2.0 | 5.0 | 0.00 | 0.30 | 0.30 | 49 | 1016.2 |
| 20260507004543 | 40 | 233 | 1.0 | 7.0 | 0.00 | 0.30 | 0.30 | 49 | 1015.7 |
| 20260507003040 | 41 | 238 | 2.0 | 8.0 | 0.00 | 0.30 | 0.30 | 48 | 1015.4 |
| 20260507001537 | 41 | 221 | 2.0 | 7.0 | 0.00 | 0.30 | 0.30 | 48 | 1015.2 |
| 20260507000036 | 40 | 225 | 3.0 | 11.0 | 0.00 | 0.30 | 0.30 | 47 | 1014.9 |
| 20260506234534 | 41 | 229 | 4.0 | 11.0 | 0.00 | 0.30 | 0.30 | 49 | 1014.8 |
| 20260506233033 | 40 | 141 | 5.0 | 10.0 | 0.00 | 0.30 | 0.30 | 51 | 1014.5 |
| 20260506231532 | 40 | 193 | 4.0 | 11.0 | 0.00 | 0.30 | 0.30 | 50 | 1014.2 |
| 20260506230028 | 39 | 162 | 3.0 | 12.0 | 0.00 | 0.30 | 0.30 | 53 | 1014.0 |
| 20260506224528 | 38 | 221 | 3.0 | 12.0 | 0.00 | 0.30 | 0.30 | 58 | 1013.7 |
| 20260506223026 | 39 | 158 | 3.0 | 15.0 | 0.01 | 0.30 | 0.30 | 56 | 1013.5 |
| 20260506221527 | 40 | 153 | 2.0 | 10.0 | 0.02 | 0.30 | 0.30 | 53 | 1013.3 |
| 20260506220030 | 39 | 205 | 3.0 | 10.0 | 0.04 | 0.30 | 0.30 | 61 | 1013.1 |
| 20260506214522 | 39 | 183 | 2.0 | 9.0 | 0.05 | 0.30 | 0.30 | 60 | 1013.3 |
| 20260506213020 | 39 | 194 | 2.0 | 10.0 | 0.08 | 0.28 | 0.28 | 58 | 1013.0 |
| 20260506211518 | 38 | 215 | 4.0 | 13.0 | 0.11 | 0.28 | 0.28 | 68 | 1012.9 |
| 20260506210020 | 36 | 106 | 2.0 | 14.0 | 0.12 | 0.26 | 0.26 | 71 | 1012.8 |
| 20260506204516 | 39 | 161 | 2.0 | 8.0 | 0.17 | 0.25 | 0.25 | 63 | 1012.2 |
| 20260506203013 | 37 | 224 | 2.0 | 7.0 | 0.18 | 0.21 | 0.21 | 67 | 1012.2 |
| 20260506201511 | 36 | 207 | 4.0 | 10.0 | 0.17 | 0.17 | 0.17 | 72 | 1012.0 |
| 20260506200010 | 37 | 140 | 3.0 | 9.0 | 0.13 | 0.13 | 0.13 | 70 | 1011.4 |
| 20260506194608 | 37 | 194 | 1.0 | 7.0 | 0.08 | 0.08 | 0.08 | 71 | 1011.3 |
| 20260506193106 | 38 | 247 | 3.0 | 9.0 | 0.03 | 0.03 | 0.03 | 61 | 1010.9 |
| 20260506191509 | 38 | 196 | 2.0 | 6.0 | 0.00 | 0.00 | 0.00 | 61 | 1010.7 |
| 20260506190002 | 38 | 223 | 1.0 | 15.0 | 0.00 | 0.00 | 0.00 | 64 | 1010.6 |
| 20260506184603 | 37 | 288 | 1.0 | 10.0 | 0.00 | 0.00 | 0.00 | 65 | 1010.6 |
| 20260506183100 | 35 | 222 | 1.0 | 6.0 | 0.00 | 0.00 | 0.00 | 79 | 1010.4 |
| 20260506181557 | 35 | 195 | 1.0 | 3.0 | 0.00 | 0.00 | 0.00 | 84 | 1010.1 |
| 20260506180056 | 37 | 268 | 0.0 | 6.0 | 0.00 | 0.00 | 0.00 | 82 | 1009.8 |
| 20260506174552 | 36 | 177 | 0.0 | 2.0 | 0.00 | 0.00 | 0.00 | 85 | 1010.2 |
| 20260506173107 | 34 | 226 | 0.0 | 0.0 | 0.00 | 0.00 | 0.00 | 90 | 1010.2 |
| 20260506171555 | 32 | 173 | 0.0 | 0.0 | 0.00 | 0.00 | 0.00 | 92 | 1010.3 |
| 20260506170050 | 30 | 136 | 0.0 | 0.0 | 0.00 | 0.00 | 0.00 | 92 | 1010.3 |
| 20260506164544 | 31 | 129 | 0.0 | 1.0 | 0.00 | 0.00 | 0.00 | 91 | 1010.5 |
| 20260506163056 | 32 | 269 | 0.0 | 0.0 | 0.00 | 0.00 | 0.00 | 91 | 1009.5 |
| 20260506161543 | 33 | 238 | 0.0 | 0.0 | 0.00 | 0.00 | 0.00 | 92 | 1008.9 |
| 20260506160039 | 32 | 257 | 0.0 | 0.0 | 0.00 | 0.00 | 0.00 | 92 | 1008.9 |
| 20260506154539 | 32 | 139 | 0.0 | 0.0 | 0.00 | 0.00 | 0.00 | 91 | 1009.0 |
| 20260506153040 | 33 | 184 | 0.0 | 2.0 | 0.00 | 0.00 | 0.00 | 88 | 1009.1 |
| 20260506151535 | 33 | 67 | 0.0 | 0.0 | 0.00 | 0.00 | 0.00 | 88 | 1008.7 |
| 20260506150036 | 33 | 229 | 0.0 | 0.0 | 0.00 | 0.00 | 0.00 | 89 | 1009.0 |
| 20260506144537 | 32 | 253 | 0.0 | 0.0 | 0.00 | 0.00 | 0.00 | 90 | 1008.8 |
| 20260506143032 | 33 | 270 | 0.0 | 1.0 | 0.00 | 0.00 | 0.00 | 88 | 1008.8 |
| 20260506141531 | 32 | 126 | 0.0 | 1.0 | 0.00 | 0.00 | 0.00 | 91 | 1008.7 |
| 20260506140038 | 31 | 250 | 0.0 | 0.0 | 0.00 | 0.00 | 0.00 | 94 | 1008.7 |
| 20260506134529 | 31 | 250 | 0.0 | 0.0 | 0.00 | 0.00 | 0.00 | 94 | 1008.5 |
| 20260506133030 | 31 | 250 | 0.0 | 0.0 | 0.00 | 0.00 | 0.00 | 94 | 1008.5 |
| 20260506131533 | 30 | 250 | 0.0 | 0.0 | 0.00 | 0.00 | 0.00 | 94 | 1008.4 |
| 20260506130028 | 30 | 250 | 0.0 | 0.0 | 0.00 | 0.00 | 0.00 | 94 | 1008.3 |
| 20260506124525 | 30 | 250 | 0.0 | 0.0 | 0.00 | 0.00 | 0.00 | 94 | 1008.1 |
| 20260506123024 | 30 | 252 | 0.0 | 0.0 | 0.00 | 0.00 | 0.00 | 94 | 1007.9 |
| 20260506121522 | 30 | 252 | 0.0 | 0.0 | 0.00 | 0.00 | 0.00 | 93 | 1007.7 |
| 20260506120030 | 31 | 252 | 0.0 | 0.0 | 0.00 | 0.00 | 0.00 | 93 | 1007.8 |
| 20260506114518 | 31 | 252 | 0.0 | 0.0 | 0.00 | 0.00 | 0.00 | 93 | 1007.7 |
| 20260506113019 | 31 | 260 | 0.0 | 1.0 | 0.00 | 0.00 | 0.00 | 92 | 1007.6 |
| 20260506111518 | 32 | 203 | 0.0 | 0.0 | 0.00 | 0.00 | 0.00 | 92 | 1007.3 |
| 20260506110015 | 32 | 131 | 0.0 | 1.0 | 0.00 | 0.00 | 0.00 | 91 | 1007.1 |
| 20260506104513 | 32 | 131 | 0.0 | 0.0 | 0.00 | 0.00 | 0.00 | 92 | 1007.1 |
| 20260506103019 | 32 | 131 | 0.0 | 0.0 | 0.00 | 0.00 | 0.00 | 92 | 1007.1 |
| 20260506101513 | 32 | 222 | 0.0 | 0.0 | 0.00 | 0.00 | 0.00 | 92 | 1007.0 |
| 20260506100011 | 32 | 222 | 0.0 | 0.0 | 0.00 | 0.00 | 0.00 | 92 | 1007.0 |
| 20260506094510 | 32 | 221 | 0.0 | 0.0 | 0.00 | 0.00 | 0.00 | 92 | 1006.8 |
| 20260506093013 | 32 | 264 | 0.0 | 1.0 | 0.00 | 0.00 | 0.00 | 91 | 1006.7 |
| 20260506091508 | 32 | 134 | 0.0 | 3.0 | 0.00 | 0.00 | 0.00 | 88 | 1006.6 |
| 20260506090005 | 33 | 35 | 0.0 | 0.0 | 0.00 | 0.00 | 0.00 | 88 | 1006.6 |
| 20260506084511 | 33 | 146 | 0.0 | 1.0 | 0.00 | 0.00 | 0.00 | 90 | 1006.7 |
| 20260506083003 | 33 | 160 | 0.0 | 0.0 | 0.00 | 0.00 | 0.00 | 88 | 1006.7 |
| 20260506081504 | 33 | 63 | 0.0 | 1.0 | 0.00 | 0.00 | 0.00 | 90 | 1007.0 |
| 20260506080112 | 33 | 271 | 0.0 | 1.0 | 0.00 | 0.00 | 0.00 | 91 | 1007.1 |
| 20260506073110 | 33 | 271 | 0.0 | 1.0 | 0.00 | 0.00 | 0.00 | 90 | 1007.2 |
| 20260506071554 | 34 | 265 | 0.0 | 1.0 | 0.00 | 0.00 | 0.00 | 88 | 1007.3 |